Theta_e
309 313 318 320 321 321 321 319 318 319 319 316 311 306 302 303 302 303 303 302 301 301 301 300 298 298 297 296 296 295 295 294 294 295 296 295 294 294 294 295 295 294 294
304 311 314 318 319 320 319 318 317 318 318 315 310 307 305 303 303 302 301 301 300 301 300 299 298 298 297 295 294 294 293 294 293 294 295 294 293 294 294 295 293 292 294
303 306 311 316 319 319 319 317 316 316 317 313 310 308 306 303 301 300 300 300 300 300 299 299 298 298 297 295 295 295 294 294 292 292 293 292 292 291 293 293 293 292 292
304 306 309 313 317 319 319 318 316 316 316 312 310 306 302 298 299 299 299 299 300 299 299 299 298 297 297 296 295 294 294 295 292 291 290 291 290 288 288 292 292 293 291
305 304 308 311 316 318 318 317 316 315 314 311 311 307 302 301 300 299 298 298 298 299 298 298 298 297 296 295 294 293 292 293 293 292 290 289 289 288 286 286 289 291 293
304 305 307 311 313 317 318 318 315 314 313 313 311 307 304 302 298 297 297 297 297 298 297 297 297 296 295 294 293 293 292 291 291 291 290 289 288 287 287 286 286 285 288
304 304 305 308 310 314 316 317 315 312 311 312 311 308 306 302 299 297 297 296 295 296 296 296 295 295 294 293 293 292 291 290 290 290 289 289 288 288 287 285 284 284 286
303 305 306 307 309 311 314 315 314 313 311 311 311 309 307 303 300 299 298 297 296 296 296 295 295 294 293 292 291 291 290 290 290 289 289 288 288 288 287 285 284 281 283
302 303 306 306 308 309 311 313 313 313 312 311 311 309 307 305 302 300 299 298 297 296 296 295 294 293 292 291 290 290 289 289 289 288 288 287 288 288 287 286 286 283 279
300 303 305 306 308 309 310 313 313 313 313 311 310 309 307 307 304 300 298 298 297 296 295 294 293 292 291 290 289 289 289 288 288 288 287 287 287 287 287 286 286 285 283
300 301 302 305 307 310 310 310 311 311 311 310 309 308 306 306 304 300 299 298 297 296 294 293 292 291 289 289 288 288 288 287 287 287 287 286 287 286 287 287 287 286 285
299 300 301 302 304 307 309 309 309 309 310 309 308 307 306 306 302 300 299 298 296 295 293 293 291 290 289 288 287 287 287 286 286 286 286 285 286 286 286 286 286 286 286
290 295 300 301 302 305 307 308 308 308 309 308 307 306 304 304 301 299 299 298 296 294 293 292 290 289 288 287 287 287 286 286 286 286 285 285 286 285 286 286 286 286 286
287 287 288 298 301 303 305 306 306 308 307 306 305 304 303 303 301 299 298 296 295 293 292 291 289 288 287 286 286 286 286 285 285 285 286 286 286 286 286 285 285 285 285
284 284 285 287 294 300 302 304 305 306 305 304 303 303 302 301 300 298 296 295 294 293 291 289 288 287 286 285 285 284 284 285 284 286 286 287 287 287 287 285 286 285 284
281 284 284 285 286 293 297 301 301 302 302 301 301 300 299 298 297 296 294 293 292 291 289 287 286 284 283 288 287 286 285 285 285 286 287 287 287 286 288 288 288 287 284
280 282 283 282 283 285 295 296 297 298 299 299 298 297 296 295 294 293 292 290 289 287 285 284 283 282 282 288 288 288 286 286 286 286 286 285 286 287 286 287 287 287 288
278 281 282 282 282 285 293 295 295 295 294 294 294 294 293 292 291 290 289 287 285 284 282 282 281 280 282 289 288 288 288 287 286 286 285 285 285 286 286 285 285 285 285
279 282 282 282 282 288 291 292 292 291 291 290 290 290 290 289 288 287 286 284 283 282 281 281 280 280 284 289 289 288 286 285 285 285 285 286 285 286 286 285 283 283 283
280 281 281 281 281 286 289 289 289 289 288 287 287 288 288 287 286 285 283 283 282 280 280 280 280 283 283 288 288 287 285 284 284 285 285 286 285 285 286 284 282 281 281
279 280 280 280 281 284 287 286 287 287 287 287 286 286 286 285 285 284 282 281 280 280 279 279 280 281 283 285 287 288 286 285 284 284 284 284 284 285 285 285 282 282 283
278 279 279 279 281 283 285 284 284 285 285 285 284 284 284 283 282 281 281 280 280 278 278 279 279 280 282 286 287 287 286 286 285 283 283 284 284 284 284 283 284 284 284
278 279 278 279 280 281 284 283 283 284 283 283 283 282 281 281 281 280 279 279 279 278 278 278 278 279 282 284 286 286 285 284 283 283 284 283 282 283 282 283 283 283 280
277 278 278 278 278 279 280 282 282 283 282 280 280 280 279 280 280 280 280 279 279 278 279 279 279 279 281 282 283 283 284 283 283 283 282 281 281 282 281 281 281 280 279
277 277 277 277 277 279 280 281 281 282 280 279 279 279 280 279 279 280 280 280 281 281 280 280 280 280 280 282 284 284 283 283 281 280 280 279 279 278 278 278 278 278 278
276 276 277 277 278 278 279 280 281 280 279 278 279 279 278 279 279 280 281 285 285 286 285 285 284 284 285 285 284 284 283 281 280 279 278 277 277 276 276 276 276 277 277
Wind_Speed
25 13 17 19 20 19 19 21 20 22 16 14 14 12 12 11 10 9 12 12 10 11 10 7 8 6 6 6 5 3 3 1 3 4 4 4 3 4 3 3 2 1 1
11 16 20 21 22 24 24 22 22 22 19 14 12 11 11 10 9 9 11 13 13 11 9 9 8 8 5 7 6 4 2 2 3 3 3 3 3 3 4 1 1 1 2
20 22 19 23 23 25 26 25 26 24 21 18 13 11 10 8 9 11 11 12 13 12 10 11 8 8 6 6 5 4 4 2 0 2 3 2 1 2 3 3 1 2 2
20 18 19 21 23 23 21 23 23 24 21 22 18 20 16 15 12 12 10 11 14 12 11 10 9 9 6 7 5 4 3 1 3 1 2 3 3 2 2 3 4 3 6
20 20 21 23 23 20 23 22 23 22 22 22 20 17 17 13 11 11 16 14 12 13 12 11 10 9 6 7 6 5 4 1 1 2 2 0 2 1 2 3 3 4 2
20 19 18 18 20 19 20 20 23 23 24 23 23 23 23 19 15 15 14 12 11 11 12 12 10 9 8 8 7 5 5 4 2 1 2 2 1 2 3 3 4 7 4
19 19 17 19 20 23 23 21 24 25 25 26 25 24 23 22 22 20 15 17 13 12 14 14 11 9 9 9 8 6 5 5 4 5 3 2 1 1 2 3 4 4 4
14 16 20 18 21 23 24 24 25 25 25 26 26 23 23 16 15 19 15 14 13 14 16 13 12 12 11 9 8 6 5 5 4 5 3 2 2 2 3 3 3 5 4
9 13 15 19 20 21 25 26 26 26 26 27 23 24 22 22 19 21 18 15 15 13 17 16 14 12 12 11 10 6 7 6 6 6 6 4 3 3 3 3 3 3 4
3 5 5 13 15 18 19 21 23 24 23 23 21 19 21 21 18 18 20 20 17 18 19 17 15 14 13 12 10 7 8 7 5 4 6 5 4 4 3 4 4 5 6
11 10 7 10 13 16 18 20 20 22 21 22 20 20 19 20 18 17 19 19 18 19 19 18 16 15 14 12 11 9 8 7 6 5 6 6 5 4 4 4 5 5 6
13 11 9 9 7 12 14 16 17 18 19 19 19 19 18 20 19 18 19 20 20 19 19 18 17 16 14 13 12 10 9 9 8 8 6 6 5 6 6 5 7 6 7
18 19 13 7 3 6 9 10 13 15 15 17 18 18 18 19 19 18 18 19 19 20 19 18 17 17 15 14 12 11 9 9 8 7 7 6 6 6 5 6 6 6 6
16 17 18 16 10 4 5 9 10 12 14 15 17 18 18 18 17 17 18 18 18 19 19 17 17 16 15 13 11 10 9 8 7 6 6 7 6 6 6 5 6 7 8
19 17 15 14 16 9 3 5 7 10 12 13 14 15 15 16 16 16 17 17 18 17 18 17 16 15 13 10 12 10 8 8 7 6 7 7 7 7 9 6 7 8 8
20 19 17 15 15 15 9 5 2 4 8 11 12 13 14 15 16 16 16 16 16 16 16 16 15 15 9 20 19 12 7 7 7 7 6 6 7 9 11 11 15 13 11
21 20 18 15 14 15 8 3 1 3 7 10 11 12 14 15 14 15 15 16 16 15 15 15 15 14 11 21 20 17 7 7 6 5 4 4 4 5 6 10 14 14 18
23 21 17 16 17 16 9 3 3 4 4 7 10 11 12 13 14 15 15 15 14 15 14 15 14 13 10 21 19 16 6 6 5 5 4 4 4 4 6 8 9 10 11
19 18 18 16 17 15 4 3 4 5 5 7 9 10 12 14 15 15 16 14 14 13 13 13 14 13 11 19 17 13 6 6 5 4 4 4 5 6 9 8 9 11 10
19 17 18 15 13 13 5 4 5 6 7 7 9 10 11 13 14 15 16 14 13 14 12 13 12 16 12 17 16 12 5 5 3 4 4 6 6 7 12 8 9 10 10
20 18 15 13 12 11 7 5 6 8 6 7 9 10 11 13 13 14 13 14 14 14 14 14 11 11 11 11 15 14 5 4 3 2 2 2 4 9 13 13 8 9 14
21 20 15 13 12 9 5 4 5 5 8 9 10 10 12 10 11 14 13 14 15 15 14 14 11 8 8 12 13 11 5 4 2 2 2 2 8 11 13 11 13 18 16
16 16 15 14 11 12 7 4 2 8 10 10 11 9 11 11 12 14 14 13 13 12 12 11 10 8 6 5 12 9 6 4 0 1 3 6 8 10 8 12 15 14 7
13 13 14 11 10 9 8 3 2 5 10 12 12 12 12 12 11 10 10 11 11 11 11 10 9 8 6 6 6 5 4 4 3 1 2 4 5 7 8 8 8 7 7
12 12 11 9 6 5 3 2 2 5 8 12 10 11 10 11 11 9 9 10 9 11 10 9 9 9 7 6 9 7 4 3 4 2 2 2 3 4 4 6 7 7 8
11 10 10 7 5 3 2 3 5 7 8 10 10 9 10 10 10 11 12 19 18 20 19 18 11 8 13 15 13 12 10 8 5 3 2 3 3 4 6 6 8 9 11
Wind_Direction
210 184 197 194 187 189 185 188 184 192 181 179 176 170 172 176 171 166 166 166 163 169 159 150 158 156 160 138 140 140 159 108 337 266 193 186 204 218 203 193 228 305 323
181 187 194 193 189 188 188 184 187 193 187 180 178 174 173 173 163 160 165 167 170 169 165 157 166 160 148 140 151 178 140 88 347 317 277 208 172 186 210 262 268 329 334
203 208 196 194 192 193 188 185 185 190 186 176 171 168 162 157 166 171 165 177 171 170 168 169 159 155 158 148 159 170 183 168 132 347 317 245 38 336 112 196 219 222 308
208 211 190 199 196 194 190 187 189 188 186 180 177 178 174 173 180 171 163 171 170 173 173 169 159 159 162 141 158 160 154 221 194 196 21 41 19 357 308 187 208 205 259
219 212 199 198 197 189 192 189 186 189 188 185 184 180 178 180 168 168 164 167 170 175 176 168 166 161 158 145 150 156 169 191 196 247 183 206 104 78 282 295 308 302 304
212 216 205 191 195 192 194 188 190 190 189 188 189 187 184 174 169 171 169 168 172 173 174 173 168 166 152 147 150 160 165 160 193 181 236 241 210 170 226 271 301 303 290
204 216 205 190 192 193 193 189 191 193 190 192 192 192 187 180 174 173 174 167 172 174 178 173 170 168 150 152 148 161 170 165 188 208 196 214 245 336 283 284 289 298 315
207 209 212 195 192 192 192 191 192 193 191 194 194 192 188 183 177 180 176 174 176 173 166 168 171 166 154 153 153 162 171 172 198 210 220 199 208 218 248 264 298 308 283
224 208 198 196 194 194 195 193 191 195 194 197 191 192 189 185 182 180 177 174 171 169 165 166 168 165 157 158 158 168 174 181 196 205 212 215 216 222 238 248 256 261 302
301 270 205 198 201 198 193 196 198 197 191 194 195 193 191 190 181 179 177 176 171 167 165 164 168 162 159 160 161 172 177 188 192 209 210 211 220 228 237 246 247 245 257
2 336 269 217 204 196 192 194 195 194 191 192 192 191 190 190 181 180 180 175 167 166 166 165 165 162 161 163 168 173 173 192 193 201 220 222 231 241 243 247 252 256 258
5 359 338 306 233 207 189 193 194 196 193 187 188 190 186 189 181 181 179 174 168 166 164 163 163 161 164 164 171 172 176 191 198 202 210 226 230 239 250 254 260 264 272
9 3 5 7 286 225 196 192 191 195 191 182 184 186 186 187 179 179 178 174 166 164 164 163 164 163 162 164 172 175 181 190 200 203 213 221 227 244 251 259 273 280 288
15 7 357 357 358 326 222 195 191 189 186 182 183 184 184 182 179 174 177 171 168 164 164 165 161 159 158 162 165 170 178 185 197 202 219 227 234 249 266 281 292 279 277
6 5 359 350 344 344 310 213 192 181 175 177 182 180 180 171 172 173 172 172 170 165 162 159 155 152 155 159 158 162 168 182 191 202 215 225 239 268 275 281 285 292 291
351 352 351 349 343 333 321 325 148 161 161 172 180 173 168 169 169 167 171 172 166 160 156 156 149 144 144 158 160 159 166 181 192 204 212 221 230 247 262 274 281 285 289
342 342 342 339 329 322 300 300 314 135 177 172 167 161 163 168 165 164 167 164 160 149 150 145 143 138 140 161 164 164 162 183 195 200 217 239 256 253 269 281 289 286 291
335 332 332 332 325 310 281 232 171 155 150 158 160 164 164 159 159 163 163 153 150 153 148 146 138 133 147 160 162 167 156 185 192 200 225 244 261 273 287 295 292 299 294
326 324 327 326 318 314 272 214 165 161 161 164 163 162 162 163 163 160 156 151 147 143 142 134 127 128 142 155 159 165 159 193 194 205 230 252 275 285 308 304 300 299 299
320 326 323 320 315 319 292 224 186 166 165 159 158 162 166 163 164 158 151 148 143 137 130 119 121 134 136 154 162 168 174 180 191 203 229 240 263 301 313 311 313 303 307
325 322 321 315 316 312 279 228 194 182 158 146 153 156 155 160 154 147 145 138 135 127 121 117 120 121 130 153 169 179 170 187 186 210 244 268 298 312 317 318 306 303 311
329 329 323 324 323 314 287 230 187 139 138 140 144 151 152 145 144 141 138 134 131 121 121 121 114 118 130 155 168 172 191 176 142 249 280 306 329 319 321 319 316 318 318
325 323 322 323 333 343 314 285 185 141 138 142 143 137 131 136 139 138 135 129 127 124 128 121 122 125 125 130 162 168 150 132 151 332 338 328 332 332 333 326 323 326 316
324 323 321 325 327 343 352 38 139 143 139 137 139 136 133 132 132 131 132 130 131 125 125 128 126 132 144 157 163 154 146 151 182 55 15 356 344 343 335 328 320 317 317
326 321 319 321 327 341 16 53 50 146 150 132 130 131 131 129 125 118 126 122 114 128 131 131 135 144 147 160 153 145 137 113 83 82 43 25 9 347 327 321 320 320 316
327 324 324 324 335 5 40 103 124 135 136 126 129 128 127 125 124 122 115 114 123 126 125 129 135 137 137 133 131 129 117 98 91 91 45 26 2 340 317 325 325 323 323